sat.trackr.live / text

‹ back to catalog

STARLINK-30480

NORAD 58069 · 2023-158U

PAYLOAD ACTIVE UNKNOWN

§ Identity

Operator
Country
US
Launch date
2023-10-13
Launch site
AFETR
Launch vehicle
Mass (kg)
RCS (m²)

Purposes: comms

External: N2YO · Heavens-Above · Gunter

§ Orbital elements

Epoch: 2026-09-20T22:47:41.411904Z

Period
94.27 min
Inclination
43.0046°
Eccentricity
0.0001798
Mean motion
15.27579238 rev/d
Perigee alt
481.8 km
Apogee alt
484.3 km
Semi-major
6,861.2 km
B*
2.7766e-5
RAAN
222.1089°
Arg perigee
284.4242°
Mean anomaly
75.6410°
Rev number
16,510

§ Raw data

STARLINK-304801 58069U 23158U   26263.94978486  .00000502  00000+0  27766-4 0  99992 58069  43.0046 222.1089 0001798 284.4242  75.6410 15.27579238165107

JSON: /api/v1/satellites/58069 · /tle

For live sub-satellite position, see the globe view (requires WebGL).

§ Visibility from observer

Set your observer location to see the next 7 days of passes ≥ 10°. The values pass through the URL so the page stays shareable.

No JS? Fill the form by hand. The geolocation button needs JavaScript.